This is the latest recevied weather packets stored in our database for station/object KM8V-8. If no packets are shown the sender has not sent any weather packets the latest 10 day(s).
| Time | Temp. | Humidity | Pressure | Rain* | Wind** | Luminosity | Snow |
|---|---|---|---|---|---|---|---|
| 1777426216 | 15.56° C | 74% | 1012.9 hPa | 0 mm | - | 0 W/m² | - |
| 1777425916 | 15.56° C | 74% | 1013 hPa | 0 mm | - | 0 W/m² | - |
| 1777425617 | 15.56° C | 74% | 1013 hPa | 0 mm | - | 0 W/m² | - |
| 1777425332 | 15.56° C | 73% | 1012.9 hPa | 0 mm | - | 0 W/m² | - |
| 1777425017 | 16.11° C | 73% | 1012.9 hPa | 0 mm | - | 0 W/m² | - |
| 1777424717 | 16.11° C | 73% | 1012.7 hPa | 0 mm | - | 0 W/m² | - |
| 1777424417 | 16.11° C | 73% | 1012.6 hPa | 0 mm | - | 0 W/m² | - |
| 1777424118 | 16.11° C | 72% | 1012.6 hPa | 0 mm | - | 0 W/m² | - |
| 1777423832 | 16.11° C | 72% | 1012.6 hPa | 0 mm | - | 0 W/m² | - |
| 1777423518 | 16.11° C | 72% | 1012.7 hPa | 0 mm | - | 0 W/m² | - |
| 1777423224 | 16.67° C | 72% | 1012.7 hPa | 0 mm | - | 1 W/m² | - |
| 1777422924 | 16.67° C | 71% | 1012.4 hPa | 0 mm | - | 2 W/m² | - |
| 1777422617 | 16.67° C | 71% | 1012.3 hPa | 0 mm | - | 4 W/m² | - |
| 1777422323 | 16.67° C | 71% | 1012.2 hPa | 0 mm | - | 5 W/m² | - |
| 1777422018 | 16.67° C | 71% | 1012.1 hPa | 0 mm | - | 7 W/m² | - |
| 1777421718 | 16.67° C | 71% | 1012.2 hPa | 0 mm | - | 9 W/m² | - |
| 1777421418 | 17.22° C | 71% | 1012.2 hPa | 0 mm | - | 13 W/m² | - |
| 1777421118 | 17.22° C | 71% | 1012.1 hPa | 0 mm | - | 16 W/m² | - |
| 1777420818 | 17.22° C | 71% | 1012.1 hPa | 0 mm | - | 23 W/m² | - |
| 1777420518 | 17.78° C | 71% | 1012.2 hPa | 0 mm | - | 30 W/m² | - |
| 1777420218 | 17.78° C | 70% | 1012.2 hPa | 0 mm | - | 38 W/m² | - |
| 1777419916 | 18.33° C | 69% | 1012.2 hPa | 0 mm | - | 45 W/m² | - |
| 1777419616 | 18.33° C | 66% | 1012.2 hPa | 0 mm | - | 64 W/m² | - |
| 1777419316 | 18.33° C | 66% | 1012.2 hPa | 0 mm | - | 75 W/m² | - |
| 1777419017 | 18.33° C | 66% | 1012.2 hPa | 0 mm | - | 65 W/m² | - |
* Rain latest hour (hover to see other rain measurements)
** Current wind speed in m/s (hover to see current wind gust speed)